| time (UTC) | temp C | wind direction | speed KPH | gust KPH | rain 1hr cm | rain 24hr cm | rain mn cm | humidity % | barometer mb |
| 20260503224952 | 26 | 188 | 0.0 | 4.8 | 0.00 | 0.00 | 0.00 | 27 | 1012.4 |
| 20260503224449 | 27 | 269 | 1.6 | 3.2 | 0.00 | 0.00 | 0.00 | 29 | 1012.4 |
| 20260503223947 | 26 | 328 | 0.0 | 3.2 | 0.00 | 0.00 | 0.00 | 29 | 1012.6 |
| 20260503223445 | 26 | 248 | 0.0 | 4.8 | 0.00 | 0.00 | 0.00 | 30 | 1012.7 |
| 20260503222940 | 26 | 299 | 3.2 | 6.4 | 0.00 | 0.00 | 0.00 | 30 | 1012.7 |
| 20260503222439 | 26 | 247 | 3.2 | 4.8 | 0.00 | 0.00 | 0.00 | 30 | 1013.0 |
| 20260503221936 | 26 | 267 | 1.6 | 4.8 | 0.00 | 0.00 | 0.00 | 31 | 1012.9 |
| 20260503221434 | 25 | 334 | 3.2 | 8.0 | 0.00 | 0.00 | 0.00 | 31 | 1012.9 |
| 20260503220931 | 25 | 311 | 1.6 | 6.4 | 0.00 | 0.00 | 0.00 | 32 | 1012.9 |
| 20260503220427 | 25 | 345 | 4.8 | 6.4 | 0.00 | 0.00 | 0.00 | 33 | 1013.0 |
| 20260503215924 | 25 | 13 | 1.6 | 6.4 | 0.00 | 0.00 | 0.00 | 33 | 1013.1 |
| 20260503215421 | 25 | 268 | 3.2 | 8.0 | 0.00 | 0.00 | 0.00 | 33 | 1012.9 |
| 20260503214919 | 25 | 342 | 1.6 | 8.0 | 0.00 | 0.00 | 0.00 | 33 | 1013.0 |
| 20260503214416 | 25 | 341 | 3.2 | 6.4 | 0.00 | 0.00 | 0.00 | 33 | 1013.1 |
| 20260503213914 | 25 | 2 | 1.6 | 9.7 | 0.00 | 0.00 | 0.00 | 32 | 1013.1 |
| 20260503213411 | 25 | 297 | 1.6 | 9.7 | 0.00 | 0.00 | 0.00 | 33 | 1013.2 |
| 20260503212908 | 25 | 309 | 3.2 | 8.0 | 0.00 | 0.00 | 0.00 | 34 | 1013.1 |
| 20260503212406 | 25 | 295 | 4.8 | 6.4 | 0.00 | 0.00 | 0.00 | 36 | 1013.1 |
| 20260503211902 | 25 | 348 | 6.4 | 8.0 | 0.00 | 0.00 | 0.00 | 35 | 1013.4 |
| 20260503211359 | 24 | 343 | 0.0 | 9.7 | 0.00 | 0.00 | 0.00 | 35 | 1013.3 |
| 20260503210854 | 25 | 302 | 6.4 | 6.4 | 0.00 | 0.00 | 0.00 | 34 | 1013.3 |
| 20260503210352 | 25 | 358 | 3.2 | 9.7 | 0.00 | 0.00 | 0.00 | 35 | 1013.2 |
| 20260503205847 | 25 | 248 | 3.2 | 9.7 | 0.00 | 0.00 | 0.00 | 33 | 1013.4 |
| 20260503205344 | 25 | 336 | 8.0 | 8.0 | 0.00 | 0.00 | 0.00 | 34 | 1013.4 |
| 20260503204840 | 25 | 260 | 3.2 | 6.4 | 0.00 | 0.00 | 0.00 | 33 | 1013.4 |
| 20260503204337 | 25 | 333 | 4.8 | 9.7 | 0.00 | 0.00 | 0.00 | 34 | 1013.4 |
| 20260503203835 | 25 | 218 | 3.2 | 9.7 | 0.00 | 0.00 | 0.00 | 34 | 1013.5 |
| 20260503203332 | 25 | 329 | 6.4 | 8.0 | 0.00 | 0.00 | 0.00 | 35 | 1013.5 |
| 20260503202829 | 25 | 241 | 4.8 | 8.0 | 0.00 | 0.00 | 0.00 | 35 | 1013.5 |
| 20260503202327 | 25 | 331 | 4.8 | 8.0 | 0.00 | 0.00 | 0.00 | 35 | 1013.5 |
| 20260503201825 | 25 | 350 | 3.2 | 8.0 | 0.00 | 0.00 | 0.00 | 34 | 1013.5 |
| 20260503201321 | 25 | 143 | 0.0 | 6.4 | 0.00 | 0.00 | 0.00 | 34 | 1013.7 |
| 20260503200819 | 25 | 353 | 4.8 | 8.0 | 0.00 | 0.00 | 0.00 | 35 | 1013.6 |
| 20260503200315 | 24 | 339 | 4.8 | 8.0 | 0.00 | 0.00 | 0.00 | 36 | 1013.8 |
| 20260503195812 | 23 | 343 | 4.8 | 9.7 | 0.00 | 0.00 | 0.00 | 37 | 1013.8 |
| 20260503195309 | 23 | 281 | 1.6 | 6.4 | 0.00 | 0.00 | 0.00 | 38 | 1013.8 |
| 20260503194806 | 23 | 284 | 4.8 | 11.3 | 0.00 | 0.00 | 0.00 | 37 | 1014.0 |
| 20260503194302 | 23 | 345 | 8.0 | 9.7 | 0.00 | 0.00 | 0.00 | 38 | 1014.1 |
| 20260503193758 | 23 | 320 | 4.8 | 9.7 | 0.00 | 0.00 | 0.00 | 38 | 1014.3 |
| 20260503193254 | 23 | 213 | 1.6 | 6.4 | 0.00 | 0.00 | 0.00 | 39 | 1014.0 |
| 20260503192750 | 23 | 312 | 4.8 | 9.7 | 0.00 | 0.00 | 0.00 | 39 | 1014.2 |
| 20260503192245 | 23 | 344 | 9.7 | 9.7 | 0.00 | 0.00 | 0.00 | 40 | 1014.2 |
| 20260503191743 | 22 | 205 | 0.0 | 8.0 | 0.00 | 0.00 | 0.00 | 43 | 1014.2 |
| 20260503191239 | 22 | 4 | 3.2 | 11.3 | 0.00 | 0.00 | 0.00 | 43 | 1014.2 |
| 20260503190731 | 22 | 359 | 6.4 | 9.7 | 0.00 | 0.00 | 0.00 | 43 | 1014.2 |
| 20260503190227 | 22 | 347 | 8.0 | 11.3 | 0.00 | 0.00 | 0.00 | 42 | 1014.3 |
| 20260503185725 | 22 | 338 | 6.4 | 11.3 | 0.00 | 0.00 | 0.00 | 45 | 1014.3 |
| 20260503185221 | 22 | 336 | 6.4 | 6.4 | 0.00 | 0.00 | 0.00 | 45 | 1014.4 |
| 20260503184716 | 22 | 357 | 6.4 | 9.7 | 0.00 | 0.00 | 0.00 | 43 | 1014.2 |
| 20260503184212 | 22 | 46 | 1.6 | 8.0 | 0.00 | 0.00 | 0.00 | 43 | 1014.6 |
| 20260503183709 | 22 | 249 | 3.2 | 4.8 | 0.00 | 0.00 | 0.00 | 43 | 1014.4 |
| 20260503183206 | 22 | 5 | 1.6 | 4.8 | 0.00 | 0.00 | 0.00 | 43 | 1014.4 |
| 20260503182704 | 22 | 344 | 6.4 | 6.4 | 0.00 | 0.00 | 0.00 | 43 | 1014.4 |
| 20260503182203 | 22 | 42 | 3.2 | 4.8 | 0.00 | 0.00 | 0.00 | 44 | 1014.7 |
| 20260503181658 | 22 | 339 | 1.6 | 4.8 | 0.00 | 0.00 | 0.00 | 45 | 1014.4 |
| 20260503181155 | 22 | 0 | 3.2 | 6.4 | 0.00 | 0.00 | 0.00 | 45 | 1014.6 |
| 20260503180652 | 22 | 13 | 4.8 | 6.4 | 0.00 | 0.00 | 0.00 | 46 | 1014.7 |
| 20260503180151 | 22 | 9 | 3.2 | 4.8 | 0.00 | 0.00 | 0.00 | 46 | 1014.7 |
| 20260503175647 | 21 | 66 | 3.2 | 9.7 | 0.00 | 0.00 | 0.00 | 49 | 1014.9 |
| 20260503175144 | 21 | 9 | 3.2 | 6.4 | 0.00 | 0.00 | 0.00 | 47 | 1014.8 |
| 20260503174640 | 21 | 109 | 3.2 | 4.8 | 0.00 | 0.00 | 0.00 | 49 | 1014.9 |
| 20260503174138 | 20 | 19 | 3.2 | 4.8 | 0.00 | 0.00 | 0.00 | 52 | 1014.9 |
| 20260503173633 | 19 | 12 | 3.2 | 6.4 | 0.00 | 0.00 | 0.00 | 51 | 1014.8 |
| 20260503173130 | 19 | 92 | 3.2 | 8.0 | 0.00 | 0.00 | 0.00 | 52 | 1014.8 |
| 20260503172626 | 19 | 354 | 3.2 | 11.3 | 0.00 | 0.00 | 0.00 | 50 | 1014.9 |
| 20260503172124 | 20 | 50 | 4.8 | 8.0 | 0.00 | 0.00 | 0.00 | 49 | 1014.8 |
| 20260503171620 | 20 | 13 | 4.8 | 8.0 | 0.00 | 0.00 | 0.00 | 48 | 1014.7 |
| 20260503171117 | 20 | 351 | 6.4 | 8.0 | 0.00 | 0.00 | 0.00 | 49 | 1014.7 |
| 20260503170614 | 19 | 343 | 6.4 | 11.3 | 0.00 | 0.00 | 0.00 | 51 | 1014.8 |
| 20260503170110 | 20 | 10 | 11.3 | 16.1 | 0.00 | 0.00 | 0.00 | 49 | 1014.8 |
| 20260503151006 | 17 | 271 | 0.0 | 8.0 | 0.00 | 0.00 | 0.00 | 53 | 1015.0 |
| 20260503150502 | 17 | 8 | 9.7 | 9.7 | 0.00 | 0.00 | 0.00 | 54 | 1015.3 |
| 20260503131344 | 17 | 140 | 0.0 | 3.2 | 0.00 | 0.00 | 0.00 | 48 | 1014.9 |
| 20260503130841 | 16 | 74 | 3.2 | 3.2 | 0.00 | 0.00 | 0.00 | 48 | 1014.8 |
| 20260503130339 | 16 | 134 | 0.0 | 3.2 | 0.00 | 0.00 | 0.00 | 48 | 1014.8 |
| 20260503110733 | 17 | 149 | 3.2 | 3.2 | 0.00 | 0.00 | 0.00 | 43 | 1015.1 |
| 20260503110230 | 18 | 154 | 0.0 | 3.2 | 0.00 | 0.00 | 0.00 | 42 | 1015.4 |
| 20260503100156 | 18 | 134 | 3.2 | 6.4 | 0.00 | 0.00 | 0.00 | 42 | 1015.5 |
| 20260503090114 | 19 | 73 | 1.6 | 3.2 | 0.00 | 0.00 | 0.00 | 36 | 1015.3 |
| 20260503081550 | 18 | 4 | 3.2 | 4.8 | 0.00 | 0.00 | 0.00 | 41 | 1015.1 |
| 20260503081047 | 18 | 0 | 3.2 | 4.8 | 0.00 | 0.00 | 0.00 | 41 | 1015.3 |
| 20260503080544 | 18 | 3 | 3.2 | 6.4 | 0.00 | 0.00 | 0.00 | 43 | 1015.3 |
| 20260503072517 | 18 | 2 | 3.2 | 6.4 | 0.00 | 0.00 | 0.00 | 43 | 1015.1 |
| 20260503072014 | 17 | 352 | 3.2 | 6.4 | 0.00 | 0.00 | 0.00 | 43 | 1015.2 |
| 20260503071511 | 17 | 357 | 4.8 | 4.8 | 0.00 | 0.00 | 0.00 | 44 | 1015.3 |
| 20260503071008 | 18 | 8 | 3.2 | 6.4 | 0.00 | 0.00 | 0.00 | 44 | 1015.2 |
| 20260503070504 | 17 | 322 | 1.6 | 8.0 | 0.00 | 0.00 | 0.00 | 44 | 1015.2 |
| 20260503054922 | 18 | 337 | 6.4 | 6.4 | 0.00 | 0.00 | 0.00 | 45 | 1015.0 |
| 20260503054419 | 17 | 332 | 3.2 | 6.4 | 0.00 | 0.00 | 0.00 | 46 | 1015.1 |
| 20260503053917 | 17 | 324 | 3.2 | 4.8 | 0.00 | 0.00 | 0.00 | 47 | 1015.2 |
| 20260503053414 | 18 | 338 | 3.2 | 6.4 | 0.00 | 0.00 | 0.00 | 45 | 1015.2 |
| 20260503052910 | 18 | 278 | 0.0 | 6.4 | 0.00 | 0.00 | 0.00 | 44 | 1015.1 |
| 20260503052408 | 18 | 269 | 0.0 | 6.4 | 0.00 | 0.00 | 0.00 | 43 | 1015.2 |
| 20260503051904 | 18 | 17 | 0.0 | 3.2 | 0.00 | 0.00 | 0.00 | 42 | 1015.2 |
| 20260503051400 | 18 | 230 | 0.0 | 3.2 | 0.00 | 0.00 | 0.00 | 42 | 1015.3 |
| 20260503050857 | 18 | 302 | 0.0 | 3.2 | 0.00 | 0.00 | 0.00 | 43 | 1015.3 |
| 20260503050353 | 18 | 320 | 0.0 | 3.2 | 0.00 | 0.00 | 0.00 | 42 | 1015.4 |
| 20260503045851 | 18 | 323 | 1.6 | 4.8 | 0.00 | 0.00 | 0.00 | 42 | 1015.2 |
| 20260503045349 | 18 | 325 | 0.0 | 3.2 | 0.00 | 0.00 | 0.00 | 42 | 1015.2 |
| 20260503044845 | 18 | 315 | 3.2 | 8.0 | 0.00 | 0.00 | 0.00 | 44 | 1015.1 |
| 20260503044342 | 18 | 304 | 3.2 | 6.4 | 0.00 | 0.00 | 0.00 | 44 | 1015.0 |
| 20260503043839 | 18 | 308 | 3.2 | 6.4 | 0.00 | 0.00 | 0.00 | 43 | 1014.8 |
| 20260503043336 | 18 | 311 | 1.6 | 6.4 | 0.00 | 0.00 | 0.00 | 43 | 1014.9 |
| 20260503042832 | 18 | 305 | 3.2 | 4.8 | 0.00 | 0.00 | 0.00 | 43 | 1014.9 |
| 20260503042329 | 18 | 312 | 3.2 | 3.2 | 0.00 | 0.00 | 0.00 | 42 | 1014.9 |
| 20260503041825 | 18 | 321 | 3.2 | 3.2 | 0.00 | 0.00 | 0.00 | 42 | 1014.9 |
| 20260503041322 | 18 | 305 | 1.6 | 3.2 | 0.00 | 0.00 | 0.00 | 41 | 1014.9 |
| 20260503040820 | 19 | 309 | 1.6 | 3.2 | 0.00 | 0.00 | 0.00 | 41 | 1014.9 |
| 20260503040317 | 19 | 316 | 4.8 | 4.8 | 0.00 | 0.00 | 0.00 | 40 | 1014.8 |
| 20260503035814 | 20 | 291 | 4.8 | 8.0 | 0.00 | 0.00 | 0.00 | 39 | 1014.4 |
| 20260503035312 | 20 | 326 | 3.2 | 8.0 | 0.00 | 0.00 | 0.00 | 40 | 1014.6 |
| 20260503034809 | 19 | 316 | 4.8 | 8.0 | 0.00 | 0.00 | 0.00 | 40 | 1014.6 |
| 20260503034305 | 19 | 299 | 3.2 | 4.8 | 0.00 | 0.00 | 0.00 | 40 | 1014.3 |
| 20260503033803 | 20 | 303 | 3.2 | 4.8 | 0.00 | 0.00 | 0.00 | 40 | 1014.6 |
| 20260503033300 | 19 | 301 | 1.6 | 4.8 | 0.00 | 0.00 | 0.00 | 40 | 1014.3 |
| 20260503032758 | 19 | 305 | 1.6 | 3.2 | 0.00 | 0.00 | 0.00 | 41 | 1014.6 |
| 20260503032257 | 19 | 291 | 0.0 | 4.8 | 0.00 | 0.00 | 0.00 | 40 | 1014.3 |
| 20260503031753 | 19 | 261 | 0.0 | 3.2 | 0.00 | 0.00 | 0.00 | 41 | 1014.4 |
| 20260503031252 | 19 | 305 | 0.0 | 1.6 | 0.00 | 0.00 | 0.00 | 39 | 1014.4 |
| 20260503030747 | 19 | 291 | 0.0 | 3.2 | 0.00 | 0.00 | 0.00 | 40 | 1014.4 |
| 20260503030244 | 20 | 200 | 3.2 | 3.2 | 0.00 | 0.00 | 0.00 | 41 | 1014.3 |
| 20260503025741 | 20 | 138 | 3.2 | 4.8 | 0.00 | 0.00 | 0.00 | 40 | 1014.3 |
| 20260503025239 | 20 | 170 | 0.0 | 3.2 | 0.00 | 0.00 | 0.00 | 39 | 1014.3 |
| 20260503024735 | 20 | 249 | 3.2 | 3.2 | 0.00 | 0.00 | 0.00 | 40 | 1014.2 |
| 20260503024232 | 20 | 112 | 1.6 | 3.2 | 0.00 | 0.00 | 0.00 | 39 | 1014.3 |
| 20260503023729 | 20 | 129 | 0.0 | 3.2 | 0.00 | 0.00 | 0.00 | 41 | 1014.1 |
| 20260503023226 | 20 | 163 | 1.6 | 6.4 | 0.00 | 0.00 | 0.00 | 41 | 1014.4 |
| 20260503022722 | 20 | 104 | 3.2 | 6.4 | 0.00 | 0.00 | 0.00 | 40 | 1014.2 |
| 20260503022222 | 20 | 120 | 3.2 | 3.2 | 0.00 | 0.00 | 0.00 | 41 | 1014.2 |
| 20260503021719 | 21 | 120 | 4.8 | 4.8 | 0.00 | 0.00 | 0.00 | 41 | 1014.4 |
| 20260503021215 | 21 | 109 | 4.8 | 8.0 | 0.00 | 0.00 | 0.00 | 37 | 1014.4 |
| 20260503020713 | 21 | 190 | 8.0 | 8.0 | 0.00 | 0.00 | 0.00 | 40 | 1014.6 |
| 20260503020210 | 21 | 105 | 1.6 | 6.4 | 0.00 | 0.00 | 0.00 | 40 | 1014.3 |
| 20260503015707 | 21 | 49 | 0.0 | 3.2 | 0.00 | 0.00 | 0.00 | 39 | 1014.6 |
| 20260503015204 | 21 | 160 | 4.8 | 6.4 | 0.00 | 0.00 | 0.00 | 39 | 1014.6 |
| 20260503014700 | 21 | 117 | 8.0 | 8.0 | 0.00 | 0.00 | 0.00 | 39 | 1014.4 |
| 20260503014158 | 21 | 119 | 0.0 | 9.7 | 0.00 | 0.00 | 0.00 | 39 | 1014.6 |
| 20260503013655 | 21 | 176 | 6.4 | 6.4 | 0.00 | 0.00 | 0.00 | 41 | 1014.8 |
| 20260503013153 | 21 | 128 | 3.2 | 4.8 | 0.00 | 0.00 | 0.00 | 41 | 1014.8 |
| 20260503012649 | 21 | 180 | 3.2 | 4.8 | 0.00 | 0.00 | 0.00 | 42 | 1014.7 |
| 20260503012146 | 21 | 110 | 3.2 | 8.0 | 0.00 | 0.00 | 0.00 | 42 | 1014.6 |
| 20260503011643 | 21 | 326 | 6.4 | 9.7 | 0.00 | 0.00 | 0.00 | 41 | 1014.7 |
| 20260503011140 | 22 | 75 | 3.2 | 4.8 | 0.00 | 0.00 | 0.00 | 40 | 1014.7 |
| 20260503010636 | 22 | 110 | 3.2 | 4.8 | 0.00 | 0.00 | 0.00 | 39 | 1014.7 |
| 20260503010134 | 22 | 175 | 3.2 | 8.0 | 0.00 | 0.00 | 0.00 | 40 | 1014.6 |
| 20260503005631 | 22 | 359 | 0.0 | 6.4 | 0.00 | 0.00 | 0.00 | 39 | 1014.8 |
| 20260503005128 | 22 | 315 | 0.0 | 8.0 | 0.00 | 0.00 | 0.00 | 38 | 1014.6 |
| 20260503004624 | 23 | 88 | 4.8 | 4.8 | 0.00 | 0.00 | 0.00 | 38 | 1014.7 |
| 20260503004123 | 23 | 348 | 0.0 | 6.4 | 0.00 | 0.00 | 0.00 | 38 | 1014.7 |
| 20260503003619 | 23 | 243 | 0.0 | 8.0 | 0.00 | 0.00 | 0.00 | 39 | 1014.7 |
| 20260503003116 | 23 | 7 | 3.2 | 6.4 | 0.00 | 0.00 | 0.00 | 39 | 1014.8 |
| 20260503002613 | 23 | 334 | 3.2 | 4.8 | 0.00 | 0.00 | 0.00 | 38 | 1014.8 |
| 20260503002110 | 23 | 0 | 6.4 | 6.4 | 0.00 | 0.00 | 0.00 | 38 | 1014.9 |
| 20260503001606 | 23 | 45 | 1.6 | 4.8 | 0.00 | 0.00 | 0.00 | 40 | 1014.8 |
| 20260503001103 | 22 | 224 | 0.0 | 4.8 | 0.00 | 0.00 | 0.00 | 39 | 1014.8 |
| 20260503000600 | 23 | 33 | 1.6 | 8.0 | 0.00 | 0.00 | 0.00 | 38 | 1014.8 |
| 20260503000057 | 23 | 27 | 3.2 | 9.7 | 0.00 | 0.00 | 0.00 | 39 | 1014.6 |
| 20260502235554 | 23 | 33 | 1.6 | 6.4 | 0.00 | 0.00 | 0.00 | 39 | 1014.9 |
| 20260502235052 | 23 | 269 | 0.0 | 8.0 | 0.00 | 0.00 | 0.00 | 38 | 1014.9 |
| 20260502234548 | 23 | 280 | 3.2 | 4.8 | 0.00 | 0.00 | 0.00 | 38 | 1014.7 |
| 20260502234046 | 23 | 23 | 1.6 | 4.8 | 0.00 | 0.00 | 0.00 | 38 | 1014.8 |
| 20260502233546 | 23 | 332 | 3.2 | 4.8 | 0.00 | 0.00 | 0.00 | 38 | 1015.0 |
| 20260502233043 | 22 | 322 | 3.2 | 6.4 | 0.00 | 0.00 | 0.00 | 39 | 1014.9 |
| 20260502232534 | 23 | 88 | 3.2 | 8.0 | 0.00 | 0.00 | 0.00 | 39 | 1015.2 |
| 20260502232031 | 23 | 162 | 6.4 | 8.0 | 0.00 | 0.00 | 0.00 | 39 | 1015.1 |
| 20260502231528 | 22 | 255 | 4.8 | 6.4 | 0.00 | 0.00 | 0.00 | 39 | 1015.0 |
| 20260502231026 | 22 | 121 | 0.0 | 6.4 | 0.00 | 0.00 | 0.00 | 40 | 1015.2 |
| 20260502230524 | 22 | 5 | 4.8 | 11.3 | 0.00 | 0.00 | 0.00 | 41 | 1015.3 |
| 20260502230023 | 22 | 260 | 3.2 | 11.3 | 0.00 | 0.00 | 0.00 | 41 | 1015.3 |
| 20260502225522 | 22 | 336 | 6.4 | 8.0 | 0.00 | 0.00 | 0.00 | 40 | 1015.6 |